Total_Precipitation_Accumulation
2.37 2.74 2.57 2.24 2.23 2.26 2.41 2.69 2.96 2.62 2.32 2.27 2.33 2.37 2.42 2.42 2.51 2.29 2.07 1.96 1.75 1.60 1.54 1.50 1.50 1.47 1.47 1.50 1.58 1.74 1.91 2.03 2.22 2.47 2.79 3.14 3.48 3.84
2.47 2.56 2.51 2.30 2.32 2.36 2.50 2.69 2.95 2.91 2.52 2.29 2.50 2.52 2.41 2.23 2.50 2.41 2.16 2.03 1.73 1.53 1.39 1.35 1.38 1.45 1.47 1.47 1.45 1.50 1.56 1.63 1.69 1.76 1.86 1.98 2.20 2.57
2.50 2.46 2.43 2.62 2.64 2.44 2.56 2.64 2.85 3.06 2.82 2.46 2.59 2.59 2.49 2.28 2.27 2.23 2.13 2.08 1.86 1.77 1.53 1.42 1.36 1.35 1.35 1.37 1.44 1.48 1.48 1.47 1.43 1.45 1.51 1.57 1.63 1.72
2.56 2.75 2.68 2.79 2.75 2.66 2.76 2.74 2.85 3.11 3.04 2.76 2.67 2.68 2.58 2.50 2.40 2.18 1.88 1.81 1.81 1.97 1.75 1.55 1.46 1.42 1.36 1.31 1.28 1.25 1.23 1.25 1.24 1.21 1.24 1.28 1.34 1.48
2.34 2.60 2.87 3.28 3.10 2.89 2.74 2.66 2.73 2.82 3.05 2.82 2.62 2.79 2.65 2.55 2.48 2.14 1.91 1.86 1.58 1.68 1.71 1.55 1.38 1.26 1.20 1.18 1.15 1.11 1.07 1.07 1.08 1.10 1.14 1.19 1.23 1.29
2.16 2.25 2.43 2.74 2.90 3.02 2.76 2.61 2.69 2.82 2.97 2.91 2.86 3.06 3.10 2.96 2.72 2.33 2.16 2.02 1.81 1.54 1.57 1.46 1.35 1.26 1.20 1.15 1.13 1.11 1.10 1.11 1.15 1.16 1.18 1.23 1.29 1.33
2.22 2.16 2.03 2.16 2.35 2.52 2.40 2.68 2.85 2.82 2.89 2.94 3.06 3.43 3.43 3.22 2.70 2.43 2.33 2.25 2.00 1.68 1.59 1.40 1.30 1.19 1.17 1.20 1.17 1.12 1.09 1.08 1.10 1.12 1.17 1.21 1.24 1.31
2.32 2.29 2.14 2.00 1.99 2.10 2.14 2.34 2.58 2.63 2.71 2.88 2.98 3.18 3.23 3.15 2.91 2.64 2.42 2.28 2.02 1.78 1.76 1.62 1.46 1.35 1.23 1.12 1.23 1.22 1.20 1.17 1.13 1.10 1.08 1.11 1.15 1.17
2.47 2.56 2.17 1.83 2.02 1.97 2.04 2.04 1.98 2.12 2.32 2.54 2.70 2.79 3.09 3.20 3.18 2.76 2.58 2.41 2.09 1.93 1.96 1.79 1.68 1.50 1.30 1.23 1.32 1.18 1.17 1.17 1.12 1.07 1.03 0.99 1.00 1.06
2.17 2.20 2.17 2.00 1.91 1.94 1.93 1.81 1.69 1.72 1.86 1.90 2.00 2.27 2.63 3.09 3.34 3.06 2.92 2.71 2.39 2.10 1.90 1.78 1.69 1.57 1.41 1.31 1.37 1.22 1.12 1.09 1.06 0.99 0.94 0.94 0.95 0.99
1.90 1.91 1.95 1.85 1.89 1.85 1.75 1.70 1.65 1.56 1.58 1.65 1.64 1.77 2.08 2.47 2.93 3.09 2.81 2.47 2.19 1.91 1.82 1.71 1.56 1.65 1.63 1.48 1.41 1.44 1.24 1.13 1.06 1.04 1.01 0.99 0.97 1.02
2.14 2.11 2.07 1.91 1.89 1.79 1.63 1.61 1.49 1.38 1.47 1.45 1.39 1.41 1.52 1.85 2.33 2.49 2.58 2.40 2.10 1.88 1.61 1.63 1.56 1.67 1.71 1.47 1.31 1.32 1.28 1.28 1.23 1.13 1.09 1.10 1.13 0.99
2.26 2.31 2.24 2.14 1.84 1.69 1.55 1.46 1.44 1.54 1.60 1.56 1.48 1.48 1.62 1.81 1.98 2.24 2.47 2.49 2.26 1.92 1.70 1.75 1.65 1.70 1.73 1.53 1.38 1.32 1.24 1.23 1.23 1.23 1.21 1.18 1.17 1.06
2.15 2.27 2.29 2.19 1.94 1.79 1.63 1.51 1.54 1.50 1.48 1.55 1.52 1.48 1.50 1.61 1.80 2.10 2.36 2.42 2.29 2.05 1.94 1.95 1.84 1.76 1.77 1.61 1.40 1.32 1.31 1.27 1.23 1.18 1.17 1.32 1.26 1.21
1.85 2.20 2.31 2.18 1.97 1.71 1.62 1.60 1.51 1.38 1.40 1.41 1.32 1.26 1.29 1.40 1.62 1.92 2.25 2.44 2.37 2.13 1.96 1.86 1.85 1.92 1.96 1.74 1.47 1.33 1.34 1.32 1.21 1.17 1.13 1.14 1.11 1.14
1.57 1.81 1.91 1.88 1.71 1.59 1.50 1.40 1.30 1.29 1.27 1.24 1.24 1.30 1.38 1.42 1.49 1.64 1.99 2.31 2.41 2.19 1.99 1.92 1.88 1.98 1.97 1.83 1.69 1.45 1.31 1.29 1.21 1.18 1.20 1.17 1.15 1.12
1.57 1.61 1.71 1.79 1.77 1.70 1.68 1.59 1.48 1.39 1.31 1.27 1.34 1.38 1.48 1.56 1.60 1.71 1.96 2.17 2.14 1.94 1.86 1.92 1.98 2.04 2.02 2.02 1.87 1.53 1.37 1.29 1.26 1.33 1.40 1.33 1.22 1.20
1.29 1.34 1.54 1.72 1.84 1.84 1.88 1.85 1.76 1.67 1.58 1.56 1.59 1.57 1.56 1.61 1.65 1.70 1.91 2.10 2.09 1.94 1.83 1.78 1.95 2.14 2.12 1.95 1.73 1.57 1.41 1.27 1.27 1.39 1.46 1.42 1.29 1.21
1.09 1.22 1.39 1.54 1.73 1.89 1.92 1.87 1.80 1.81 1.87 1.86 1.82 1.79 1.74 1.75 1.80 1.78 1.78 1.93 1.99 1.94 1.94 1.95 1.99 2.05 2.00 1.68 1.42 1.39 1.45 1.42 1.47 1.50 1.48 1.39 1.27 1.23
1.14 1.31 1.48 1.62 1.76 1.94 1.98 1.94 1.93 1.92 1.94 1.93 1.94 1.92 1.88 1.86 1.86 1.81 1.75 1.75 1.86 1.94 1.97 1.99 1.93 1.85 1.77 1.66 1.56 1.45 1.43 1.53 1.61 1.57 1.53 1.55 1.48 1.46
1.43 1.49 1.55 1.64 1.78 1.92 2.06 2.14 2.16 2.08 2.03 2.01 1.99 1.99 2.00 1.96 1.84 1.80 1.86 1.90 1.86 1.89 1.83 1.72 1.76 2.06 2.19 2.21 1.99 1.59 1.48 1.59 1.68 1.72 1.76 1.86 1.72 1.59
1.47 1.53 1.55 1.55 1.69 1.83 1.94 2.03 2.08 2.04 2.00 2.01 1.98 1.97 1.98 1.97 1.87 1.87 1.97 1.97 1.84 1.76 1.73 1.76 1.96 2.19 2.25 2.23 1.96 1.74 1.66 1.71 1.79 1.83 1.82 1.82 1.73 1.57
1.32 1.35 1.39 1.47 1.58 1.74 1.83 1.93 2.01 1.99 1.93 1.92 1.98 1.97 1.90 1.92 1.91 1.91 1.95 2.02 1.97 1.90 1.94 1.98 2.02 2.06 2.06 2.08 2.04 1.89 1.79 1.82 1.84 1.78 1.61 1.55 1.49 1.39